When you browse on this site, cookies collect data to enhance your experience and personalize the content and advertising you see.
Visit our Privacy Policy to learn more. By continuing to use the site, you agree to this use of cookies and data.
  • en France
  • Liste des pays
  • À 7 jours
  • Température de l'eau
  • Carte satellitaire
  • Carte météo
  • Widgets météo
  • user-avatar
    Se connecter

    Météo par heure à Tiranё

    Ce jour, 27 Juin, Jeudi

    Heure Température Précipitation Vent Pression Humidité
    00:00 +26°C° 0 mm 3 m/s 756 mmHg 60%
    01:00 +26°C° 0 mm 4 m/s 756 mmHg 59%
    02:00 +25°C° 0 mm 3 m/s 755 mmHg 60%
    03:00 +25°C° 0 mm 3 m/s 755 mmHg 60%
    04:00 +25°C° 0 mm 3 m/s 755 mmHg 61%
    05:00 +26°C° 0 mm 3 m/s 755 mmHg 57%
    06:00 +28°C° 0 mm 2 m/s 755 mmHg 54%
    07:00 +30°C° 0 mm 2 m/s 755 mmHg 51%
    08:00 +31°C° 0 mm 2 m/s 755 mmHg 45%
    09:00 +34°C° 0 mm 2 m/s 755 mmHg 40%
    10:00 +36°C° 0 mm 2 m/s 755 mmHg 35%
    11:00 +36°C° 0 mm 3 m/s 755 mmHg 34%
    12:00 +37°C° 0 mm 4 m/s 754 mmHg 33%
    13:00 +37°C° 0 mm 5 m/s 754 mmHg 31%
    14:00 +36°C° 0 mm 6 m/s 754 mmHg 36%
    15:00 +35°C° 0 mm 7 m/s 753 mmHg 40%
    16:00 +34°C° 0 mm 7 m/s 753 mmHg 45%
    17:00 +32°C° 0 mm 6 m/s 752 mmHg 52%
    18:00 +30°C° 0 mm 6 m/s 752 mmHg 58%
    19:00 +28°C° 0 mm 5 m/s 752 mmHg 65%
    20:00 +27°C° 0 mm 4 m/s 752 mmHg 66%
    21:00 +26°C° 0 mm 4 m/s 752 mmHg 67%
    22:00 +26°C° 0 mm 3 m/s 753 mmHg 68%
    23:00 +25°C° 0 mm 3 m/s 752 mmHg 66%

    Demain, 28 Juin, Vendredi

    Heure Température Précipitation Vent Pression Humidité
    00:00 +25°C° 0 mm 2 m/s 752 mmHg 65%
    01:00 +25°C° 0 mm 2 m/s 752 mmHg 63%
    02:00 +24°C° 0 mm 1 m/s 752 mmHg 61%
    03:00 +24°C° 0 mm 1 m/s 752 mmHg 60%
    04:00 +24°C° 0 mm 1 m/s 751 mmHg 58%
    05:00 +26°C° 0 mm 1 m/s 751 mmHg 55%
    06:00 +27°C° 0 mm 1 m/s 751 mmHg 51%
    07:00 +29°C° 0 mm 1 m/s 751 mmHg 47%
    08:00 +31°C° 0 mm 1 m/s 751 mmHg 44%
    09:00 +32°C° 0 mm 2 m/s 751 mmHg 41%
    10:00 +35°C° 0 mm 3 m/s 751 mmHg 37%
    11:00 +36°C° 0 mm 3 m/s 751 mmHg 36%
    12:00 +37°C° 0 mm 4 m/s 751 mmHg 35%
    13:00 +39°C° 0 mm 5 m/s 751 mmHg 33%
    14:00 +38°C° 0 mm 6 m/s 750 mmHg 33%
    15:00 +38°C° 0 mm 6 m/s 750 mmHg 33%
    16:00 +38°C° 0 mm 7 m/s 750 mmHg 33%
    17:00 +34°C° 0 mm 6 m/s 750 mmHg 41%
    18:00 +32°C° 0 mm 6 m/s 750 mmHg 50%
    19:00 +29°C° 0 mm 5 m/s 751 mmHg 59%
    20:00 +28°C° 0 mm 5 m/s 751 mmHg 61%
    21:00 +27°C° 0 mm 5 m/s 751 mmHg 63%
    22:00 +26°C° 0 mm 5 m/s 751 mmHg 65%
    23:00 +25°C° 0 mm 5 m/s 751 mmHg 64%

    Après-demain, 29 Juin, Samedi

    Heure Température Précipitation Vent Pression Humidité
    00:00 +25°C° 0 mm 5 m/s 751 mmHg 63%
    01:00 +23°C° 0 mm 5 m/s 752 mmHg 62%
    02:00 +22°C° 0 mm 5 m/s 751 mmHg 61%
    03:00 +22°C° 0 mm 5 m/s 751 mmHg 61%
    04:00 +21°C° 0 mm 5 m/s 751 mmHg 61%
    05:00 +22°C° 0 mm 5 m/s 752 mmHg 57%
    06:00 +25°C° 0 mm 5 m/s 752 mmHg 54%
    07:00 +26°C° 0 mm 4 m/s 752 mmHg 51%
    08:00 +28°C° 0 mm 4 m/s 752 mmHg 43%
    09:00 +30°C° 0 mm 4 m/s 752 mmHg 35%
    10:00 +33°C° 0 mm 4 m/s 753 mmHg 27%
    11:00 +34°C° 0 mm 4 m/s 753 mmHg 25%
    12:00 +35°C° 0 mm 5 m/s 753 mmHg 23%
    13:00 +36°C° 0 mm 5 m/s 753 mmHg 21%
    14:00 +35°C° 0 mm 5 m/s 753 mmHg 22%
    15:00 +35°C° 0 mm 5 m/s 753 mmHg 23%
    16:00 +35°C° 0 mm 6 m/s 753 mmHg 25%
    17:00 +33°C° 0 mm 6 m/s 753 mmHg 31%
    18:00 +30°C° 0 mm 5 m/s 753 mmHg 38%
    19:00 +27°C° 0 mm 5 m/s 753 mmHg 45%
    20:00 +26°C° 0 mm 5 m/s 754 mmHg 45%
    21:00 +25°C° 0 mm 4 m/s 754 mmHg 46%
    22:00 +23°C° 0 mm 4 m/s 754 mmHg 46%
    23:00 +22°C° 0 mm 4 m/s 754 mmHg 46%

    30 Juin, Dimanche

    Heure Température Précipitation Vent Pression Humidité
    00:00 +21°C° 0 mm 4 m/s 754 mmHg 46%
    01:00 +21°C° 0 mm 4 m/s 754 mmHg 45%
    02:00 +20°C° 0 mm 4 m/s 754 mmHg 48%
    03:00 +20°C° 0 mm 3 m/s 754 mmHg 51%
    04:00 +19°C° 0 mm 3 m/s 754 mmHg 54%
    05:00 +21°C° 0 mm 3 m/s 754 mmHg 52%
    06:00 +24°C° 0 mm 3 m/s 755 mmHg 50%
    07:00 +26°C° 0 mm 3 m/s 755 mmHg 48%
    08:00 +28°C° 0 mm 3 m/s 755 mmHg 42%
    09:00 +30°C° 0 mm 2 m/s 755 mmHg 36%
    10:00 +32°C° 0 mm 2 m/s 756 mmHg 30%
    11:00 +34°C° 0 mm 2 m/s 755 mmHg 28%
    12:00 +35°C° 0 mm 3 m/s 755 mmHg 27%
    13:00 +36°C° 0 mm 4 m/s 755 mmHg 25%
    14:00 +35°C° 0 mm 5 m/s 755 mmHg 28%
    15:00 +34°C° 0 mm 5 m/s 755 mmHg 31%
    16:00 +34°C° 0 mm 6 m/s 755 mmHg 34%
    17:00 +32°C° 0 mm 5 m/s 755 mmHg 44%
    18:00 +29°C° 0 mm 5 m/s 755 mmHg 53%
    19:00 +26°C° 0 mm 4 m/s 755 mmHg 62%
    20:00 +26°C° 0 mm 4 m/s 755 mmHg 61%
    21:00 +25°C° 0 mm 3 m/s 756 mmHg 60%
    22:00 +24°C° 0 mm 2 m/s 756 mmHg 59%
    23:00 +24°C° 0 mm 2 m/s 756 mmHg 58%

    1 Juillet, Lundi

    Heure Température Précipitation Vent Pression Humidité
    00:00 +24°C° 0 mm 2 m/s 756 mmHg 57%
    01:00 +23°C° 0 mm 2 m/s 756 mmHg 55%
    02:00 +23°C° 0 mm 2 m/s 756 mmHg 56%
    03:00 +21°C° 0 mm 2 m/s 756 mmHg 57%
    04:00 +21°C° 0 mm 2 m/s 755 mmHg 58%
    05:00 +24°C° 0 mm 2 m/s 756 mmHg 54%
    06:00 +26°C° 0 mm 1 m/s 756 mmHg 50%
    07:00 +28°C° 0 mm 1 m/s 756 mmHg 46%
    08:00 +29°C° 0 mm 1 m/s 756 mmHg 42%
    09:00 +31°C° 0 mm 1 m/s 756 mmHg 38%
    10:00 +33°C° 0 mm 1 m/s 756 mmHg 34%
    11:00 +34°C° 0 mm 2 m/s 756 mmHg 35%
    12:00 +35°C° 0 mm 3 m/s 755 mmHg 35%
    13:00 +35°C° 0 mm 4 m/s 755 mmHg 35%
    14:00 +34°C° 0 mm 4 m/s 755 mmHg 38%
    15:00 +34°C° 0 mm 5 m/s 755 mmHg 40%
    16:00 +33°C° 0 mm 5 m/s 754 mmHg 42%
    17:00 +30°C° 0 mm 4 m/s 754 mmHg 50%
    18:00 +28°C° 0 mm 3 m/s 754 mmHg 58%
    19:00 +27°C° 0 mm 3 m/s 754 mmHg 66%
    20:00 +26°C° 0 mm 2 m/s 754 mmHg 67%
    21:00 +25°C° 0 mm 2 m/s 754 mmHg 69%
    22:00 +24°C° 0 mm 1 m/s 755 mmHg 70%
    23:00 +24°C° 0 mm 1 m/s 754 mmHg 69%

    2 Juillet, Mardi

    Heure Température Précipitation Vent Pression Humidité
    00:00 +24°C° 0 mm 1 m/s 754 mmHg 69%
    01:00 +24°C° 0 mm 1 m/s 754 mmHg 68%
    02:00 +24°C° 0 mm 1 m/s 754 mmHg 67%
    03:00 +23°C° 0 mm 1 m/s 754 mmHg 67%
    04:00 +23°C° 0 mm 1 m/s 754 mmHg 66%
    05:00 +25°C° 0 mm 1 m/s 754 mmHg 61%
    06:00 +27°C° 0 mm 1 m/s 754 mmHg 56%
    07:00 +28°C° 0 mm 1 m/s 754 mmHg 51%
    08:00 +30°C° 0 mm 1 m/s 753 mmHg 48%
    09:00 +32°C° 0 mm 1 m/s 753 mmHg 45%
    10:00 +34°C° 0 mm 2 m/s 753 mmHg 41%
    11:00 +35°C° 0 mm 2 m/s 753 mmHg 41%
    12:00 +35°C° 0 mm 3 m/s 752 mmHg 40%
    13:00 +36°C° 0 mm 4 m/s 752 mmHg 40%
    14:00 +35°C° 0 mm 4 m/s 752 mmHg 43%
    15:00 +34°C° 0 mm 5 m/s 751 mmHg 46%
    16:00 +33°C° 0 mm 5 m/s 751 mmHg 48%
    17:00 +32°C° 0 mm 4 m/s 751 mmHg 54%
    18:00 +29°C° 0 mm 3 m/s 751 mmHg 60%
    19:00 +27°C° 0 mm 2 m/s 751 mmHg 66%
    20:00 +26°C° 0 mm 2 m/s 752 mmHg 67%
    21:00 +26°C° 0 mm 1 m/s 752 mmHg 69%
    22:00 +25°C° 0 mm 1 m/s 752 mmHg 70%
    23:00 +25°C° 0 mm 1 m/s 752 mmHg 72%
    Voir plus